Weather History for Puerto Plata, Dominican Republic

Change the Weather History Date:

Saturday, December 15, 2012

  Actual Average Record
Temperature  
Mean Temperature 76 °F -  
Max Temperature 83 °F 80 °F 87 °F (1997)
Min Temperature 68 °F 68 °F 66 °F (2010)
Cooling Degree Days 10    
Growing Degree Days 26 (Base 50)    
Moisture  
Dew Point 71 °F    
Average Humidity 80    
Maximum Humidity 94    
Minimum Humidity 65    
Precipitation  
Precipitation 0.00 in - - ()
Sea Level Pressure  
Sea Level Pressure 29.95 in    
Wind  
Wind Speed 4 mph ()    
Max Wind Speed 12 mph    
Max Gust Speed -    
Visibility 7.2 miles    
Events      
Averages and records for this station are not official NWS values.
T = Trace of Precipitation, MM = Missing Value Source: Averaged Metar Reports

Daily Weather History Graph

Daily Weather History Graph

Search for Another Location

Airport:

Trip Planner

Search our weather history database for the weather conditions in past years. The results will help you decide how hot, cold, wet, or windy it might be!

Date:

Astronomy

Dec. 15, 2012 Rise Set
Actual Time 7:09 AM AST 6:06 PM AST
Civil Twilight 6:45 AM AST 6:30 PM AST
Nautical Twilight 6:17 AM AST 6:57 PM AST
Astronomical Twilight 5:50 AM AST 7:24 PM AST
Moon 9:12 AM AST (12/15) 8:50 PM AST (12/15)
Length of Visible Light 11h 44m
Length of Day
10h 56m
Waxing Crescent, 8% of the Moon is Illuminated
Dec 15
Waxing Crescent
Dec 20
First Quarter
Dec 28
Full
Jan 4
Last Quarter
Jan 11
New

Hourly Weather History & Observations

Time (AST) Temp. Heat Index Dew Point Humidity Pressure Visibility Wind Dir Wind Speed Gust Speed Precip Events Conditions
2:00 AM 73.4 °F - 71.6 °F 94% 29.95 in 6.2 mi East 5.8 mph - N/A   Scattered Clouds
5:00 AM 73.4 °F - 71.6 °F 94% 29.92 in 6.2 mi Calm Calm - N/A   Partly Cloudy
8:00 AM 71 °F - 69 °F 91% 29.94 in 10 mi Calm Calm - -   Scattered Clouds
8:00 AM 71.6 °F - 69.8 °F 94% 29.92 in 6.2 mi Calm Calm - N/A   Partly Cloudy
9:00 AM 73.4 °F - 71.6 °F 94% 29.98 in 6.2 mi Calm Calm - N/A   Scattered Clouds
10:00 AM 80.6 °F 85.4 °F 73.4 °F 79% 29.98 in 6.2 mi SSE 5.8 mph - N/A   Partly Cloudy
11:00 AM 80 °F - 73 °F 73% 30.00 in 10 mi Calm Calm - -   Partly Cloudy
11:00 AM 80.6 °F 85.4 °F 73.4 °F 79% 29.98 in 6.2 mi Calm Calm - N/A   Scattered Clouds
12:00 PM 82.4 °F 87.2 °F 71.6 °F 70% 29.98 in 6.2 mi ENE 11.5 mph - N/A   Scattered Clouds
1:00 PM 82.4 °F 88.2 °F 73.4 °F 74% 29.95 in 6.2 mi Calm Calm - N/A   Scattered Clouds
2:00 PM 82 °F - 72 °F 65% 29.94 in 10 mi East 11.2 mph - -   Partly Cloudy
2:00 PM 82.4 °F 87.2 °F 71.6 °F 70% 29.92 in 6.2 mi East 11.5 mph - N/A   Scattered Clouds
3:00 PM 82.4 °F 87.2 °F 71.6 °F 70% 29.92 in 6.2 mi East 11.5 mph - N/A   Scattered Clouds
4:00 PM 80.6 °F 84.6 °F 71.6 °F 74% 29.92 in 6.2 mi East 11.5 mph - N/A   Scattered Clouds
5:00 PM 81 °F - 72 °F 68% 29.92 in 10 mi ENE 11.2 mph - -   Partly Cloudy
5:00 PM 80.6 °F 84.6 °F 71.6 °F 74% 29.92 in 6.2 mi ENE 11.5 mph - N/A   Scattered Clouds
6:00 PM 78.8 °F - 71.6 °F 78% 29.92 in 6.2 mi East 8.1 mph - N/A   Scattered Clouds
7:00 PM 77.0 °F - 69.8 °F 78% 29.95 in 6.2 mi East 6.9 mph - N/A   Scattered Clouds
8:00 PM 75 °F - 70 °F 79% 29.97 in 10 mi Calm Calm - -   Partly Cloudy
8:00 PM 75.2 °F - 69.8 °F 83% 29.95 in 6.2 mi Calm Calm - N/A   Scattered Clouds
11:00 PM 73 °F - 70 °F 89% 30.02 in 10 mi Calm Calm - -   Scattered Clouds
11:00 PM 73.4 °F - 69.8 °F 88% 30.01 in 6.2 mi Calm Calm - N/A   Partly Cloudy